Pueblo, CO

7:02 PM MDT on April 30, 2017 (GMT -0600)
Pueblo Memorial

Weather History for KPUB - March, 2014

Change the Weather History Date:

Monday, March 10, 2014

  Actual Average Record
Temperature  
Mean Temperature 57 °F 41 °F  
Max Temperature 77 °F 58 °F 86 °F (1989)
Min Temperature 36 °F 24 °F -5 °F (1948)
Degree Days  
Heating Degree Days 8 24  
Month to date heating degree days 253 255  
Since 1 July heating degree days 4458 4558  
Cooling Degree Days 0 0  
Month to date cooling degree days 0 0  
Year to date cooling degree days 0 0  
Growing Degree Days 6 (Base 50)    
Moisture  
Dew Point 15 °F    
Average Humidity 32    
Maximum Humidity 59    
Minimum Humidity 4    
Precipitation  
Precipitation 0.00 in 0.03 in 0.48 in (1968)
Month to date precipitation 0.64 0.25  
Year to date precipitation 1.37 0.90  
Snow  
Snow 0.00 in 0.20 in 5.30 in (1968)
Month to date snowfall 1.0 1.6  
Since 1 July snowfall 19.6 23.4  
Snow Depth 0.00 in    
Sea Level Pressure  
Sea Level Pressure 29.77 in    
Wind  
Wind Speed 10 mph (West)    
Max Wind Speed 28 mph    
Max Gust Speed 33 mph    
Visibility 10 miles    
Events      
T = Trace of Precipitation, MM = Missing Value Source: NWS Daily Summary

Daily Weather History Graph

Daily Weather History Graph

Search for Another Location

Airport or City:

Trip Planner

Search our weather history database for the weather conditions in past years. The results will help you decide how hot, cold, wet, or windy it might be!

Date:

Astronomy

Mar. 10, 2014 Rise Set
Actual Time 7:16 AM MDT 7:00 PM MDT
Civil Twilight 6:50 AM MDT 7:26 PM MDT
Nautical Twilight 6:19 AM MDT 7:57 PM MDT
Astronomical Twilight 5:48 AM MDT 8:28 PM MDT
Moon 1:49 PM MDT (3/10) 3:26 AM MDT (3/10)
Length of Visible Light 12h 36m
Length of Day
11h 43m
Waxing Gibbous, 70% of the Moon is Illuminated
Mar 10
Waxing Gibbous
Mar 16
Full
Mar 23
Last Quarter
Mar 30
New
Apr 7
First Quarter

Hourly Weather History & Observations

Time (MDT) Temp. Windchill Dew Point Humidity Pressure Visibility Wind Dir Wind Speed Gust Speed Precip Events Conditions
12:53 AM 46.9 °F - 19.9 °F 34% 29.96 in 10.0 mi WNW 11.5 mph - N/A   Clear
1:53 AM 45.0 °F 40.1 °F 19.0 °F 36% 29.94 in 10.0 mi West 9.2 mph - N/A   Clear
2:53 AM 41.0 °F 37.1 °F 21.9 °F 47% 29.94 in 10.0 mi West 5.8 mph - N/A   Clear
3:53 AM 39.9 °F 32.9 °F 19.0 °F 43% 29.92 in 10.0 mi West 11.5 mph - N/A   Clear
4:53 AM 46.9 °F - 12.0 °F 24% 29.89 in 10.0 mi NW 10.4 mph 27.6 mph N/A   Clear
5:53 AM 42.1 °F 37.1 °F 16.0 °F 35% 29.91 in 10.0 mi NW 8.1 mph - N/A   Clear
6:53 AM 42.1 °F 35.2 °F 16.0 °F 35% 29.91 in 10.0 mi WNW 12.7 mph - N/A   Clear
7:53 AM 36.0 °F 32.1 °F 23.0 °F 59% 29.96 in 10.0 mi ESE 4.6 mph - N/A   Clear
8:53 AM 41.0 °F 38.0 °F 24.1 °F 51% 29.97 in 10.0 mi South 4.6 mph - N/A   Clear
9:53 AM 48.9 °F - 21.9 °F 35% 29.93 in 10.0 mi Calm Calm - N/A   Clear
10:53 AM 57.0 °F - 23.0 °F 27% 29.88 in 10.0 mi East 3.5 mph - N/A   Clear
11:53 AM 66.9 °F - 17.1 °F 15% 29.82 in 10.0 mi SE 6.9 mph - N/A   Clear
12:53 PM 73.9 °F - -5.1 °F 4% 29.74 in 10.0 mi West 13.8 mph - N/A   Clear
1:53 PM 75.9 °F - -0.9 °F 5% 29.70 in 10.0 mi West 19.6 mph - N/A   Clear
2:53 PM 75.9 °F - 3.9 °F 6% 29.66 in 10.0 mi West 21.9 mph 26.5 mph N/A   Clear
3:53 PM 77.0 °F - 8.1 °F 7% 29.63 in 10.0 mi West 23.0 mph 28.8 mph N/A   Clear
4:53 PM 73.9 °F - -0.9 °F 5% 29.61 in 10.0 mi West 17.3 mph 27.6 mph N/A   Clear
5:53 PM 73.9 °F - -4.0 °F 5% 29.61 in 10.0 mi West 21.9 mph 27.6 mph N/A   Clear
6:53 PM 68.0 °F - 7.0 °F 9% 29.62 in 10.0 mi SW 8.1 mph - N/A   Clear
7:53 PM 62.1 °F - 16.0 °F 17% 29.63 in 10.0 mi WSW 3.5 mph - N/A   Clear
8:53 PM 51.1 °F - 24.1 °F 35% 29.63 in 10.0 mi NNW 3.5 mph - N/A   Clear
9:53 PM 50.0 °F - 23.0 °F 35% 29.59 in 10.0 mi South 3.5 mph - N/A   Clear
10:53 PM 48.0 °F - 27.0 °F 44% 29.56 in 10.0 mi WNW 10.4 mph - N/A   Clear
11:53 PM 45.0 °F 38.9 °F 25.0 °F 46% 29.53 in 10.0 mi West 12.7 mph - N/A   Clear